Renton, WA

2:20 AM PDT on September 24, 2017 (GMT -0700)
Renton Municipal

Weather History for KRNT - January, 2013

Change the Weather History Date:

Tuesday, January 1, 2013

  Actual Average Record
Temperature  
Mean Temperature 35 °F -  
Max Temperature 42 °F 45 °F 44 °F (2016)
Min Temperature 28 °F 36 °F 24 °F (2016)
Degree Days  
Heating Degree Days 30    
Moisture  
Dew Point 29 °F    
Average Humidity 85    
Maximum Humidity 96    
Minimum Humidity 62    
Precipitation  
Precipitation 0.00 in - - ()
Sea Level Pressure  
Sea Level Pressure 30.46 in    
Wind  
Wind Speed 2 mph (NNW)    
Max Wind Speed 10 mph    
Max Gust Speed -    
Visibility 9 miles    
Events      
Averages and records for this station are not official NWS values.
T = Trace of Precipitation, MM = Missing Value Source: NWS Daily Summary

Daily Weather History Graph

Daily Weather History Graph

Search for Another Location

Airport or City:

Trip Planner

Search our weather history database for the weather conditions in past years. The results will help you decide how hot, cold, wet, or windy it might be!

Date:

Astronomy

Jan. 01, 2013 Rise Set
Actual Time 7:56 AM PST 4:28 PM PST
Civil Twilight 7:20 AM PST 5:04 PM PST
Nautical Twilight 6:41 AM PST 5:43 PM PST
Astronomical Twilight 6:04 AM PST 6:20 PM PST
Moon 9:26 PM PST (1/1) 9:52 AM PST (1/1)
Length of Visible Light 9h 43m
Length of Day
8h 32m
Waning Gibbous, 82% of the Moon is Illuminated
Jan 1
Waning Gibbous
Jan 4
Last Quarter
Jan 11
New
Jan 18
First Quarter
Jan 26
Full

Hourly Weather History & Observations

Time (PST) Temp. Windchill Dew Point Humidity Pressure Visibility Wind Dir Wind Speed Gust Speed Precip Events Conditions
12:26 AM 30.2 °F - 28.4 °F 93% 30.47 in 5.0 mi Calm Calm - N/A   Mostly Cloudy
12:53 AM 32.0 °F - 30.0 °F 92% 30.49 in 7.0 mi Calm Calm - N/A   Overcast
1:30 AM 30.2 °F - 28.4 °F 93% 30.47 in 6.0 mi Calm Calm - N/A   Partly Cloudy
1:53 AM 30.9 °F - 28.9 °F 92% 30.50 in 8.0 mi Calm Calm - N/A   Clear
2:53 AM 30.0 °F - 28.0 °F 92% 30.52 in 7.0 mi Calm Calm - N/A   Clear
3:53 AM 28.9 °F 25.2 °F 27.0 °F 92% 30.49 in 7.0 mi South 3.5 mph - N/A   Clear
4:53 AM 30.0 °F 26.5 °F 27.0 °F 88% 30.47 in 10.0 mi ESE 3.5 mph - N/A   Clear
5:53 AM 28.0 °F - 26.1 °F 92% 30.47 in 7.0 mi Calm Calm - N/A   Clear
6:53 AM 28.0 °F - 26.1 °F 92% 30.48 in 10.0 mi Calm Calm - N/A   Clear
7:53 AM 28.0 °F - 25.0 °F 88% 30.48 in 10.0 mi Calm Calm - N/A   Clear
8:53 AM 28.9 °F - 27.0 °F 92% 30.52 in 10.0 mi Calm Calm - N/A   Clear
9:53 AM 30.9 °F 27.5 °F 28.9 °F 92% 30.51 in 10.0 mi South 3.5 mph - N/A   Clear
10:53 AM 35.1 °F - 30.9 °F 85% 30.51 in 10.0 mi Calm Calm - N/A   Clear
11:53 AM 37.0 °F - 30.9 °F 79% 30.48 in 10.0 mi Calm Calm - N/A   Clear
12:53 PM 39.9 °F 36.7 °F 30.9 °F 70% 30.46 in 10.0 mi WNW 4.6 mph - N/A   Clear
1:53 PM 42.1 °F 38.4 °F 30.0 °F 62% 30.45 in 10.0 mi North 5.8 mph - N/A   Clear
2:53 PM 42.1 °F 37.7 °F 30.9 °F 65% 30.45 in 10.0 mi NNW 6.9 mph - N/A   Clear
3:53 PM 41.0 °F 34.7 °F 32.0 °F 70% 30.44 in 10.0 mi NNW 10.4 mph - N/A   Clear
4:53 PM 39.9 °F 35.1 °F 33.1 °F 77% 30.43 in 10.0 mi NNW 6.9 mph - N/A   Clear
5:53 PM 37.0 °F 30.4 °F 30.9 °F 79% 30.42 in 10.0 mi NNW 9.2 mph - N/A   Clear
6:53 PM 37.0 °F 32.4 °F 30.9 °F 79% 30.40 in 10.0 mi NNW 5.8 mph - N/A   Clear
7:53 PM 36.0 °F - 32.0 °F 86% 30.39 in 10.0 mi Calm Calm - N/A   Clear
8:53 PM 35.1 °F 32.2 °F 32.0 °F 89% 30.40 in 10.0 mi North 3.5 mph - N/A   Clear
9:53 PM 30.9 °F - 28.9 °F 92% 30.39 in 8.0 mi Calm Calm - N/A   Clear
10:53 PM 30.0 °F - 28.0 °F 92% 30.38 in 8.0 mi Calm Calm - N/A   Clear
11:53 PM 30.0 °F - 28.9 °F 96% 30.38 in 7.0 mi Calm Calm - N/A   Clear